Location: Kumla
(59.1265°N, 15.1401°E)
Time: 23:17:19
(UTC+01:00)

Vanguard 1 - Pass Details

Date: 06 December 2023
Orbit: 653 x 3825 km, 34.3° (Epoch: 04 March)

Event Time Altitude Azimuth Distance (km) Brightness Sun altitude
Rises 15:58:20 0° 185° (S) 5,623 14.6 -6.1°
Reaches altitude 10° 16:03:56 10° 165° (SSE) 5,220 14.0 -6.7°
Maximum altitude 16:12:07 16° 134° (SE) 5,435 13.7 -7.6°
Drops below altitude 10° 16:22:06 10° 105° (ESE) 6,584 13.8 -8.6°
Enters shadow 16:30:26 - 90° (E) 7,839 14.1 -9.6°
